NXL3012 KBOS-KSAV

Flight info

Callsign NXL3012
Flight time 2h 10m
Altitude 32000
Route SSOXS7 SSOXS Q167 RIFLE HEADI Q97 SAWED GUILD Q409 SESUE SOOOP
Aircraft E75L/M-SDE3GILORVW/S

Departure

Time 2026-04-16 21:22
Airport Boston Logan International Airport (KBOS)

Arrival

Time 2026-04-16 23:33
Airport Savannah Hilton Head International Airport (KSAV)
Time Latitude Longitude Altitude Speed Heading
2026-04-16 20:22 42.36020 -71.01866 23 ft 0 kts 31°
2026-04-16 21:09 42.36003 -71.01881 25 ft 4 kts 34°
2026-04-16 21:10 42.35981 -71.01904 25 ft 4 kts 47°
2026-04-16 21:10 42.35971 -71.01933 25 ft 4 kts 103°
2026-04-16 21:10 42.35975 -71.01946 25 ft 1 kts 121°
2026-04-16 21:10 42.35976 -71.01947 25 ft 0 kts 121°
2026-04-16 21:15 42.35972 -71.01940 25 ft 2 kts 121°
2026-04-16 21:15 42.35956 -71.01903 25 ft 7 kts 121°
2026-04-16 21:15 42.35924 -71.01819 25 ft 6 kts 107°
2026-04-16 21:16 42.35913 -71.01762 28 ft 6 kts 103°
2026-04-16 21:16 42.35907 -71.01723 26 ft 7 kts 102°
2026-04-16 21:16 42.35903 -71.01696 26 ft 1 kts 102°
2026-04-16 21:16 42.35900 -71.01680 26 ft 3 kts 102°
2026-04-16 21:17 42.35896 -71.01650 27 ft 0 kts 101°
2026-04-16 21:17 42.35894 -71.01638 27 ft 3 kts 100°
2026-04-16 21:17 42.35888 -71.01596 28 ft 6 kts 99°
2026-04-16 21:17 42.35884 -71.01563 26 ft 2 kts 101°
2026-04-16 21:18 42.35879 -71.01523 24 ft 6 kts 100°
2026-04-16 21:18 42.35870 -71.01460 23 ft 0 kts 102°
2026-04-16 21:18 42.35867 -71.01446 23 ft 3 kts 102°
2026-04-16 21:18 42.35861 -71.01405 23 ft 6 kts 98°
2026-04-16 21:19 42.35854 -71.01341 22 ft 8 kts 97°
2026-04-16 21:19 42.35834 -71.01256 22 ft 11 kts 133°
2026-04-16 21:19 42.35761 -71.01256 21 ft 11 kts 199°
2026-04-16 21:19 42.35731 -71.01271 21 ft 5 kts 201°
2026-04-16 21:20 42.35702 -71.01286 22 ft 4 kts 200°
2026-04-16 21:20 42.35674 -71.01299 23 ft 4 kts 198°
2026-04-16 21:20 42.35661 -71.01304 24 ft 0 kts 196°
2026-04-16 21:21 42.35598 -71.01267 25 ft 20 kts 117°
2026-04-16 21:22 42.35664 -71.00801 21 ft 89 kts 76°
2026-04-16 21:22 42.35853 -70.99677 84 ft 150 kts 78°
2026-04-16 21:22 42.36161 -70.98211 830 ft 165 kts 72°
2026-04-16 21:22 42.36617 -70.96817 1957 ft 166 kts 67°
2026-04-16 21:23 42.37168 -70.95270 2511 ft 198 kts 79°
2026-04-16 21:23 42.37393 -70.93361 3273 ft 218 kts 84°
2026-04-16 21:23 42.37660 -70.91238 4234 ft 238 kts 81°
2026-04-16 21:23 42.37988 -70.88865 4902 ft 281 kts 80°
2026-04-16 21:24 42.38360 -70.86225 5983 ft 283 kts 80°
2026-04-16 21:24 42.38608 -70.83492 6529 ft 299 kts 88°
2026-04-16 21:24 42.38562 -70.80631 7239 ft 307 kts 96°
2026-04-16 21:24 42.38234 -70.77793 7994 ft 311 kts 107°
2026-04-16 21:25 42.37514 -70.75022 8727 ft 314 kts 121°
2026-04-16 21:25 42.36149 -70.72748 9434 ft 310 kts 144°
2026-04-16 21:25 42.34400 -70.71058 10088 ft 310 kts 154°
2026-04-16 21:25 42.32410 -70.69838 10418 ft 318 kts 167°
2026-04-16 21:26 42.30274 -70.68819 10850 ft 329 kts 166°
2026-04-16 21:26 42.28105 -70.67803 11494 ft 332 kts 167°
2026-04-16 21:26 42.25904 -70.66792 12171 ft 335 kts 167°
2026-04-16 21:26 42.23705 -70.65786 12870 ft 339 kts 167°
2026-04-16 21:27 42.21458 -70.64757 13601 ft 342 kts 167°
2026-04-16 21:27 42.19186 -70.63717 14276 ft 346 kts 167°
2026-04-16 21:27 42.16873 -70.62792 14942 ft 343 kts 178°
2026-04-16 21:27 42.14543 -70.62731 15615 ft 338 kts 190°
2026-04-16 21:28 42.12207 -70.63097 16280 ft 338 kts 195°
2026-04-16 21:28 42.09881 -70.63656 16948 ft 340 kts 197°
2026-04-16 21:28 42.07547 -70.64303 17586 ft 342 kts 199°
2026-04-16 21:28 42.05260 -70.65175 18222 ft 342 kts 204°
2026-04-16 21:29 42.02985 -70.66148 18811 ft 344 kts 204°
2026-04-16 21:29 42.00694 -70.67152 19408 ft 347 kts 205°
2026-04-16 21:29 41.98419 -70.68154 19997 ft 349 kts 205°
2026-04-16 21:29 41.96093 -70.69177 20614 ft 352 kts 205°
2026-04-16 21:30 41.93755 -70.70204 21260 ft 355 kts 205°
2026-04-16 21:30 41.91389 -70.71242 21868 ft 358 kts 205°
2026-04-16 21:30 41.89007 -70.72287 22470 ft 361 kts 205°
2026-04-16 21:30 41.86656 -70.73445 23014 ft 356 kts 215°
2026-04-16 21:31 41.84680 -70.75317 23551 ft 350 kts 225°
2026-04-16 21:31 41.82868 -70.77513 24022 ft 350 kts 229°
2026-04-16 21:31 41.81126 -70.79817 24487 ft 352 kts 230°
2026-04-16 21:31 41.79400 -70.82170 24962 ft 354 kts 230°
2026-04-16 21:32 41.77696 -70.84578 25423 ft 356 kts 233°
2026-04-16 21:32 41.76102 -70.87129 25873 ft 357 kts 234°
2026-04-16 21:32 41.74534 -70.89680 26325 ft 360 kts 234°
2026-04-16 21:32 41.72945 -70.92284 26770 ft 362 kts 234°
2026-04-16 21:33 41.71348 -70.94906 27219 ft 365 kts 234°
2026-04-16 21:33 41.69734 -70.97550 27636 ft 367 kts 234°
2026-04-16 21:33 41.68102 -71.00222 28058 ft 370 kts 234°
2026-04-16 21:33 41.66483 -71.02872 28459 ft 372 kts 234°
2026-04-16 21:34 41.64835 -71.05562 28860 ft 375 kts 234°
2026-04-16 21:34 41.63176 -71.08273 29251 ft 377 kts 234°
2026-04-16 21:34 41.61504 -71.11001 29626 ft 379 kts 234°
2026-04-16 21:34 41.59844 -71.13707 29863 ft 385 kts 234°
2026-04-16 21:35 41.58121 -71.16513 29956 ft 393 kts 234°
2026-04-16 21:35 41.56375 -71.19354 30209 ft 396 kts 233°
2026-04-16 21:35 41.54627 -71.22191 30723 ft 391 kts 234°
2026-04-16 21:35 41.52906 -71.24985 31245 ft 387 kts 234°
2026-04-16 21:36 41.51200 -71.27755 31652 ft 386 kts 234°
2026-04-16 21:36 41.49512 -71.30490 31760 ft 378 kts 234°
2026-04-16 21:36 41.47850 -71.33186 31815 ft 382 kts 234°
2026-04-16 21:37 41.44419 -71.38732 31860 ft 390 kts 234°
2026-04-16 21:37 41.40974 -71.44293 31864 ft 389 kts 234°
2026-04-16 21:38 41.37516 -71.49864 31895 ft 389 kts 233°
2026-04-16 21:38 41.34078 -71.55393 31890 ft 388 kts 233°
2026-04-16 21:39 41.30622 -71.60941 31891 ft 389 kts 233°
2026-04-16 21:39 41.27182 -71.66453 31889 ft 388 kts 233°
2026-04-16 21:40 41.23720 -71.71991 31887 ft 389 kts 233°
2026-04-16 21:40 41.20260 -71.77515 31885 ft 388 kts 233°
2026-04-16 21:41 41.16823 -71.82991 31890 ft 388 kts 233°
2026-04-16 21:41 41.13358 -71.88504 31890 ft 388 kts 233°
2026-04-16 21:42 41.09892 -71.94008 31887 ft 388 kts 233°
2026-04-16 21:42 41.06451 -71.99462 31889 ft 388 kts 233°
2026-04-16 21:43 41.02983 -72.04949 31889 ft 388 kts 233°
2026-04-16 21:43 40.99510 -72.10434 31883 ft 388 kts 233°
2026-04-16 21:44 40.96062 -72.15869 31880 ft 388 kts 233°
2026-04-16 21:44 40.92585 -72.21340 31881 ft 387 kts 233°
2026-04-16 21:45 40.89107 -72.26805 31878 ft 388 kts 233°
2026-04-16 21:45 40.85652 -72.32223 31883 ft 388 kts 233°
2026-04-16 21:46 40.82164 -72.37681 31884 ft 388 kts 233°
2026-04-16 21:46 40.78676 -72.43131 31904 ft 388 kts 233°
2026-04-16 21:47 40.75210 -72.48537 31899 ft 387 kts 233°
2026-04-16 21:47 40.71716 -72.53972 31900 ft 388 kts 232°
2026-04-16 21:48 40.68261 -72.59383 31906 ft 387 kts 233°
2026-04-16 21:48 40.64830 -72.64873 31905 ft 387 kts 233°
2026-04-16 21:49 40.61402 -72.70353 31910 ft 387 kts 233°
2026-04-16 21:49 40.57978 -72.75815 31904 ft 387 kts 233°
2026-04-16 21:50 40.54568 -72.81247 31904 ft 387 kts 233°
2026-04-16 21:50 40.51133 -72.86707 31902 ft 387 kts 233°
2026-04-16 21:51 40.47718 -72.92126 31904 ft 386 kts 233°
2026-04-16 21:51 40.44277 -72.97576 31900 ft 386 kts 233°
2026-04-16 21:52 40.40839 -73.03012 31899 ft 386 kts 233°
2026-04-16 21:52 40.37419 -73.08410 31898 ft 386 kts 233°
2026-04-16 21:53 40.33975 -73.13838 31896 ft 386 kts 233°
2026-04-16 21:53 40.30551 -73.19224 31897 ft 387 kts 233°
2026-04-16 21:54 40.27106 -73.24632 31897 ft 387 kts 233°
2026-04-16 21:54 40.23655 -73.30042 31897 ft 387 kts 233°
2026-04-16 21:55 40.20195 -73.35455 31892 ft 387 kts 233°
2026-04-16 21:55 40.16758 -73.40824 31893 ft 387 kts 233°
2026-04-16 21:56 40.13296 -73.46222 31893 ft 387 kts 233°
2026-04-16 21:56 40.09830 -73.51618 31893 ft 387 kts 233°
2026-04-16 21:57 40.06384 -73.56971 31889 ft 387 kts 233°
2026-04-16 21:57 40.02918 -73.62347 31895 ft 387 kts 233°
2026-04-16 21:58 39.99449 -73.67719 31894 ft 387 kts 233°
2026-04-16 21:58 39.95578 -73.72637 31893 ft 390 kts 225°
2026-04-16 21:59 39.91323 -73.77061 31890 ft 393 kts 220°
2026-04-16 21:59 39.86859 -73.81177 31892 ft 393 kts 219°
2026-04-16 22:00 39.82391 -73.85250 31894 ft 393 kts 219°
2026-04-16 22:00 39.77914 -73.89324 31890 ft 392 kts 219°
2026-04-16 22:01 39.73432 -73.93398 31895 ft 393 kts 219°
2026-04-16 22:01 39.68972 -73.97446 31897 ft 393 kts 219°
2026-04-16 22:02 39.64480 -74.01516 31898 ft 393 kts 219°
2026-04-16 22:02 39.60750 -74.04890 31896 ft 393 kts 219°
2026-04-16 22:03 39.55530 -74.09607 31902 ft 392 kts 219°
2026-04-16 22:03 39.51801 -74.12970 31907 ft 393 kts 219°
2026-04-16 22:04 39.47296 -74.17027 31898 ft 393 kts 219°
2026-04-16 22:04 39.42804 -74.21066 31897 ft 393 kts 219°
2026-04-16 22:05 39.38334 -74.25079 31894 ft 393 kts 219°
2026-04-16 22:05 39.33841 -74.29106 31891 ft 393 kts 219°
2026-04-16 22:06 39.29330 -74.33143 31894 ft 394 kts 219°
2026-04-16 22:06 39.22581 -74.39170 31905 ft 394 kts 219°
2026-04-16 22:07 39.18081 -74.43181 31894 ft 394 kts 218°
2026-04-16 22:07 39.13556 -74.47208 31906 ft 395 kts 219°
2026-04-16 22:08 39.09029 -74.51230 31912 ft 395 kts 218°
2026-04-16 22:08 39.04522 -74.55228 31905 ft 395 kts 218°
2026-04-16 22:09 38.99991 -74.59241 31902 ft 395 kts 218°
2026-04-16 22:09 38.95450 -74.63257 31904 ft 396 kts 218°
2026-04-16 22:10 38.90913 -74.67262 31894 ft 396 kts 218°
2026-04-16 22:10 38.86366 -74.71271 31902 ft 397 kts 218°
2026-04-16 22:11 38.81836 -74.75257 31898 ft 397 kts 218°
2026-04-16 22:11 38.77276 -74.79264 31910 ft 397 kts 218°
2026-04-16 22:12 38.72703 -74.83276 31907 ft 398 kts 218°
2026-04-16 22:12 38.68127 -74.87284 31917 ft 399 kts 218°
2026-04-16 22:13 38.63572 -74.91267 31920 ft 398 kts 218°
2026-04-16 22:13 38.58991 -74.95267 31927 ft 398 kts 218°
2026-04-16 22:14 38.54411 -74.99261 31921 ft 398 kts 218°
2026-04-16 22:14 38.49820 -75.03256 31927 ft 399 kts 218°
2026-04-16 22:15 38.45259 -75.07221 31924 ft 399 kts 218°
2026-04-16 22:15 38.40659 -75.11213 31927 ft 400 kts 218°
2026-04-16 22:16 38.36053 -75.15203 31926 ft 400 kts 218°
2026-04-16 22:16 38.31460 -75.19175 31928 ft 400 kts 218°
2026-04-16 22:17 38.26837 -75.23168 31925 ft 401 kts 218°
2026-04-16 22:17 38.22211 -75.27157 31922 ft 402 kts 218°
2026-04-16 22:18 38.17605 -75.31123 31926 ft 402 kts 218°
2026-04-16 22:18 38.12969 -75.35108 31932 ft 402 kts 218°
2026-04-16 22:19 38.08326 -75.39093 31931 ft 402 kts 218°
2026-04-16 22:19 38.03708 -75.43050 31936 ft 403 kts 218°
2026-04-16 22:20 37.99043 -75.47041 31927 ft 403 kts 218°
2026-04-16 22:20 37.94410 -75.50999 31939 ft 404 kts 218°
2026-04-16 22:21 37.89748 -75.54976 31937 ft 404 kts 218°
2026-04-16 22:21 37.85079 -75.58952 31937 ft 405 kts 218°
2026-04-16 22:22 37.80415 -75.62918 31934 ft 405 kts 218°
2026-04-16 22:22 37.75735 -75.66892 31927 ft 405 kts 218°
2026-04-16 22:23 37.71042 -75.70870 31927 ft 405 kts 218°
2026-04-16 22:23 37.66367 -75.74827 31927 ft 406 kts 218°
2026-04-16 22:24 37.61667 -75.78798 31926 ft 406 kts 218°
2026-04-16 22:24 37.56978 -75.82756 31929 ft 407 kts 218°
2026-04-16 22:25 37.52428 -75.86991 31923 ft 404 kts 224°
2026-04-16 22:25 37.48287 -75.91712 31925 ft 404 kts 226°
2026-04-16 22:26 37.44161 -75.96515 31923 ft 404 kts 226°
2026-04-16 22:26 37.40025 -76.01327 31918 ft 404 kts 226°
2026-04-16 22:27 37.35914 -76.06100 31925 ft 405 kts 226°
2026-04-16 22:27 37.31765 -76.10907 31923 ft 405 kts 226°
2026-04-16 22:28 37.27616 -76.15709 31920 ft 405 kts 226°
2026-04-16 22:28 37.23462 -76.20507 31925 ft 405 kts 226°
2026-04-16 22:29 37.19328 -76.25275 31919 ft 406 kts 226°
2026-04-16 22:29 37.15156 -76.30079 31921 ft 406 kts 226°
2026-04-16 22:30 37.11015 -76.34840 31915 ft 406 kts 226°
2026-04-16 22:30 37.06840 -76.39634 31921 ft 406 kts 226°
2026-04-16 22:31 37.02663 -76.44421 31916 ft 406 kts 226°
2026-04-16 22:31 36.98497 -76.49188 31921 ft 407 kts 226°
2026-04-16 22:32 36.94337 -76.53941 31949 ft 407 kts 226°
2026-04-16 22:32 36.90138 -76.58732 31943 ft 407 kts 226°
2026-04-16 22:33 36.85941 -76.63512 31943 ft 407 kts 226°
2026-04-16 22:33 36.81747 -76.68282 31952 ft 408 kts 226°
2026-04-16 22:34 36.77566 -76.73031 31949 ft 408 kts 226°
2026-04-16 22:34 36.73355 -76.77804 31949 ft 409 kts 226°
2026-04-16 22:35 36.69141 -76.82575 31942 ft 408 kts 226°
2026-04-16 22:35 36.64948 -76.87313 31946 ft 409 kts 226°
2026-04-16 22:36 36.60724 -76.92082 31948 ft 409 kts 226°
2026-04-16 22:36 36.56496 -76.96846 31946 ft 410 kts 226°
2026-04-16 22:37 36.52264 -77.01606 31949 ft 410 kts 226°
2026-04-16 22:37 36.48028 -77.06365 31959 ft 410 kts 226°
2026-04-16 22:38 36.43807 -77.11098 31958 ft 410 kts 225°
2026-04-16 22:38 36.39564 -77.15851 31966 ft 411 kts 225°
2026-04-16 22:39 36.35311 -77.20606 31962 ft 410 kts 225°
2026-04-16 22:39 36.31044 -77.25293 31966 ft 412 kts 223°
2026-04-16 22:40 36.26555 -77.29748 31960 ft 412 kts 222°
2026-04-16 22:40 36.22077 -77.34141 31969 ft 413 kts 222°
2026-04-16 22:41 36.17569 -77.38558 31962 ft 413 kts 222°
2026-04-16 22:41 36.13053 -77.42978 31968 ft 413 kts 222°
2026-04-16 22:42 36.08556 -77.47371 31963 ft 413 kts 222°
2026-04-16 22:42 36.04036 -77.51783 31968 ft 414 kts 222°
2026-04-16 22:43 35.99503 -77.56200 31960 ft 414 kts 222°
2026-04-16 22:43 35.94963 -77.60618 31960 ft 415 kts 222°
2026-04-16 22:44 35.90414 -77.65037 31960 ft 415 kts 222°
2026-04-16 22:44 35.85887 -77.69429 31966 ft 416 kts 222°
2026-04-16 22:45 35.81327 -77.73845 31977 ft 416 kts 222°
2026-04-16 22:45 35.76768 -77.78255 31977 ft 417 kts 222°
2026-04-16 22:46 35.72200 -77.82665 31978 ft 417 kts 222°
2026-04-16 22:46 35.67655 -77.87048 31976 ft 417 kts 222°
2026-04-16 22:47 35.63067 -77.91465 31978 ft 417 kts 222°
2026-04-16 22:47 35.58474 -77.95882 31984 ft 419 kts 222°
2026-04-16 22:48 35.53908 -78.00264 31981 ft 419 kts 222°
2026-04-16 22:48 35.49290 -78.04691 31983 ft 420 kts 222°
2026-04-16 22:49 35.44698 -78.09085 31984 ft 421 kts 222°
2026-04-16 22:49 35.40850 -78.12764 31983 ft 422 kts 222°
2026-04-16 22:50 35.36199 -78.17202 31994 ft 422 kts 222°
2026-04-16 22:50 35.31551 -78.21633 32000 ft 423 kts 222°
2026-04-16 22:51 35.26922 -78.26037 31991 ft 423 kts 222°
2026-04-16 22:51 35.22243 -78.30483 31999 ft 424 kts 222°
2026-04-16 22:52 35.17600 -78.34888 31995 ft 424 kts 222°
2026-04-16 22:52 35.12922 -78.39320 32008 ft 425 kts 222°
2026-04-16 22:53 35.08265 -78.43724 32006 ft 425 kts 222°
2026-04-16 22:53 35.03576 -78.48154 32008 ft 426 kts 222°
2026-04-16 22:54 34.98878 -78.52585 32002 ft 426 kts 222°
2026-04-16 22:54 34.94206 -78.56985 32001 ft 426 kts 222°
2026-04-16 22:55 34.89493 -78.61416 32001 ft 427 kts 222°
2026-04-16 22:55 34.84785 -78.65836 31988 ft 427 kts 221°
2026-04-16 22:56 34.80103 -78.70226 32002 ft 427 kts 221°
2026-04-16 22:56 34.75374 -78.74653 32016 ft 428 kts 221°
2026-04-16 22:57 34.70676 -78.79045 32018 ft 427 kts 221°
2026-04-16 22:57 34.65953 -78.83454 32002 ft 428 kts 221°
2026-04-16 22:58 34.61215 -78.87869 32009 ft 428 kts 221°
2026-04-16 22:58 34.56485 -78.92271 32010 ft 428 kts 221°
2026-04-16 22:59 34.51785 -78.96639 32010 ft 428 kts 221°
2026-04-16 22:59 34.47047 -79.01035 32014 ft 428 kts 221°
2026-04-16 23:00 34.42307 -79.05426 32011 ft 428 kts 221°
2026-04-16 23:00 34.37591 -79.09790 32013 ft 428 kts 221°
2026-04-16 23:01 34.32851 -79.14170 32018 ft 428 kts 221°
2026-04-16 23:01 34.28136 -79.18519 32028 ft 428 kts 221°
2026-04-16 23:02 34.23398 -79.22883 32022 ft 428 kts 221°
2026-04-16 23:02 34.18653 -79.27249 32032 ft 428 kts 221°
2026-04-16 23:03 34.13904 -79.31610 32026 ft 428 kts 220°
2026-04-16 23:03 34.09188 -79.35935 32025 ft 428 kts 220°
2026-04-16 23:04 34.04432 -79.40292 32028 ft 428 kts 220°
2026-04-16 23:04 33.99680 -79.44637 32028 ft 428 kts 220°
2026-04-16 23:05 33.94958 -79.48950 32030 ft 428 kts 220°
2026-04-16 23:05 33.90219 -79.53270 32030 ft 427 kts 220°
2026-04-16 23:06 33.85340 -79.57340 32038 ft 430 kts 214°
2026-04-16 23:06 33.80175 -79.60921 32032 ft 430 kts 213°
2026-04-16 23:07 33.74958 -79.64472 32037 ft 430 kts 213°
2026-04-16 23:07 33.69747 -79.68012 32036 ft 430 kts 213°
2026-04-16 23:08 33.64527 -79.71554 32033 ft 430 kts 213°
2026-04-16 23:08 33.59316 -79.75086 32029 ft 430 kts 213°
2026-04-16 23:09 33.54139 -79.78591 32041 ft 430 kts 213°
2026-04-16 23:09 33.48925 -79.82115 32040 ft 429 kts 213°
2026-04-16 23:10 33.43711 -79.85634 32044 ft 429 kts 212°
2026-04-16 23:10 33.38502 -79.89146 32054 ft 429 kts 212°
2026-04-16 23:11 33.33330 -79.92627 32051 ft 429 kts 212°
2026-04-16 23:11 33.28115 -79.96134 32052 ft 428 kts 212°
2026-04-16 23:12 33.22944 -79.99671 32055 ft 429 kts 212°
2026-04-16 23:12 33.17274 -80.02007 32057 ft 438 kts 192°
2026-04-16 23:13 33.11147 -80.01861 32025 ft 446 kts 172°
2026-04-16 23:13 33.08176 -80.00916 31162 ft 451 kts 163°
2026-04-16 23:13 33.05307 -79.99361 30240 ft 455 kts 153°
2026-04-16 23:14 33.02479 -79.97660 29246 ft 453 kts 160°
2026-04-16 23:14 32.99498 -79.96539 28470 ft 445 kts 170°
2026-04-16 23:14 32.96460 -79.96042 27717 ft 436 kts 180°
2026-04-16 23:14 32.93449 -79.96175 26975 ft 428 kts 189°
2026-04-16 23:15 32.87914 -79.98234 25546 ft 414 kts 210°
2026-04-16 23:15 32.85452 -79.99978 24858 ft 409 kts 214°
2026-04-16 23:15 32.83083 -80.01838 24183 ft 405 kts 216°
2026-04-16 23:16 32.80761 -80.03721 23488 ft 401 kts 216°
2026-04-16 23:16 32.78509 -80.05574 22769 ft 397 kts 217°
2026-04-16 23:16 32.76255 -80.07439 22060 ft 393 kts 216°
2026-04-16 23:16 32.73957 -80.09172 21342 ft 389 kts 215°
2026-04-16 23:17 32.71823 -80.11118 20645 ft 383 kts 223°
2026-04-16 23:17 32.69854 -80.13223 19985 ft 379 kts 224°
2026-04-16 23:17 32.67936 -80.15364 19340 ft 376 kts 225°
2026-04-16 23:17 32.66059 -80.17496 18719 ft 372 kts 226°
2026-04-16 23:18 32.64199 -80.19617 18060 ft 369 kts 226°
2026-04-16 23:18 32.62358 -80.21720 17360 ft 366 kts 226°
2026-04-16 23:18 32.60530 -80.23809 16701 ft 362 kts 226°
2026-04-16 23:18 32.58747 -80.25849 16038 ft 359 kts 226°
2026-04-16 23:19 32.56948 -80.27906 15392 ft 357 kts 226°
2026-04-16 23:19 32.55187 -80.29915 15240 ft 351 kts 226°
2026-04-16 23:19 32.53417 -80.31929 15160 ft 354 kts 226°
2026-04-16 23:19 32.51638 -80.33964 15116 ft 354 kts 226°
2026-04-16 23:20 32.50222 -80.36320 15079 ft 350 kts 249°
2026-04-16 23:20 32.49543 -80.39070 15074 ft 346 kts 259°
2026-04-16 23:20 32.49078 -80.41826 14439 ft 344 kts 261°
2026-04-16 23:20 32.48660 -80.44615 13796 ft 342 kts 262°
2026-04-16 23:21 32.48260 -80.47379 13122 ft 338 kts 261°
2026-04-16 23:21 32.47864 -80.50123 12473 ft 335 kts 261°
2026-04-16 23:21 32.47479 -80.52835 11852 ft 332 kts 262°
2026-04-16 23:21 32.47121 -80.55487 11337 ft 327 kts 262°
2026-04-16 23:22 32.46781 -80.58089 11138 ft 312 kts 262°
2026-04-16 23:22 32.46461 -80.60585 10931 ft 300 kts 262°
2026-04-16 23:22 32.46157 -80.62993 10678 ft 291 kts 262°
2026-04-16 23:22 32.45863 -80.65358 10260 ft 289 kts 262°
2026-04-16 23:23 32.45576 -80.67711 9845 ft 288 kts 262°
2026-04-16 23:23 32.45299 -80.70022 9442 ft 285 kts 262°
2026-04-16 23:23 32.45024 -80.72340 9043 ft 282 kts 262°
2026-04-16 23:23 32.44751 -80.74635 8663 ft 279 kts 262°
2026-04-16 23:24 32.44482 -80.76908 8265 ft 277 kts 262°
2026-04-16 23:24 32.44217 -80.79159 7885 ft 275 kts 262°
2026-04-16 23:24 32.43957 -80.81396 7516 ft 272 kts 262°
2026-04-16 23:24 32.43654 -80.83574 7111 ft 270 kts 253°
2026-04-16 23:25 32.42935 -80.85631 6722 ft 269 kts 245°
2026-04-16 23:25 32.42100 -80.87605 6347 ft 267 kts 243°
2026-04-16 23:25 32.41235 -80.89553 5954 ft 265 kts 243°
2026-04-16 23:25 32.40358 -80.91481 5550 ft 264 kts 243°
2026-04-16 23:26 32.39480 -80.93389 5176 ft 263 kts 243°
2026-04-16 23:26 32.38610 -80.95256 4794 ft 261 kts 242°
2026-04-16 23:26 32.37729 -80.97138 4410 ft 259 kts 242°
2026-04-16 23:26 32.37037 -80.98622 4116 ft 258 kts 242°
2026-04-16 23:27 32.36175 -81.00493 3714 ft 259 kts 242°
2026-04-16 23:27 32.35325 -81.02364 3348 ft 258 kts 242°
2026-04-16 23:27 32.34491 -81.04221 2949 ft 258 kts 242°
2026-04-16 23:27 32.33669 -81.06110 2597 ft 257 kts 242°
2026-04-16 23:28 32.32872 -81.08001 2209 ft 255 kts 241°
2026-04-16 23:28 32.32074 -81.09949 2082 ft 267 kts 242°
2026-04-16 23:28 32.31273 -81.11877 2036 ft 259 kts 237°
2026-04-16 23:28 32.30149 -81.13478 2016 ft 251 kts 225°
2026-04-16 23:29 32.28856 -81.14827 2026 ft 249 kts 216°
2026-04-16 23:29 32.27507 -81.15993 2062 ft 234 kts 214°
2026-04-16 23:29 32.26262 -81.17039 2090 ft 203 kts 214°
2026-04-16 23:29 32.25153 -81.17878 2113 ft 180 kts 207°
2026-04-16 23:30 32.24055 -81.18532 1591 ft 177 kts 203°
2026-04-16 23:30 32.22925 -81.19043 1109 ft 170 kts 197°
2026-04-16 23:30 32.21810 -81.19419 889 ft 163 kts 193°
2026-04-16 23:30 32.20701 -81.19689 717 ft 169 kts 187°
2026-04-16 23:31 32.19498 -81.19862 645 ft 169 kts 184°
2026-04-16 23:31 32.18405 -81.19960 528 ft 149 kts 180°
2026-04-16 23:31 32.17409 -81.19994 417 ft 138 kts 178°
2026-04-16 23:31 32.16476 -81.20003 363 ft 129 kts 179°
2026-04-16 23:32 32.15573 -81.20013 253 ft 130 kts 177°
2026-04-16 23:32 32.14660 -81.20014 191 ft 133 kts 177°
2026-04-16 23:32 32.13728 -81.20007 96 ft 131 kts 177°
2026-04-16 23:32 32.12890 -81.20000 37 ft 98 kts 180°
2026-04-16 23:33 32.12512 -81.19997 40 ft 34 kts 179°
2026-04-16 23:33 32.12277 -81.19998 44 ft 30 kts 178°
2026-04-16 23:33 32.12157 -81.19915 49 ft 19 kts 98°
2026-04-16 23:33 32.12156 -81.19859 50 ft 0 kts 86°
2026-04-16 23:34 32.12156 -81.19853 50 ft 0 kts 90°
2026-04-16 23:34 32.12156 -81.19851 50 ft 0 kts 90°
2026-04-16 23:34 32.12156 -81.19848 50 ft 0 kts 99°
2026-04-16 23:34 32.12148 -81.19830 51 ft 0 kts 125°
2026-04-16 23:35 32.12130 -81.19814 50 ft 6 kts 159°
2026-04-16 23:35 32.12080 -81.19809 51 ft 9 kts 179°
2026-04-16 23:35 32.12012 -81.19808 51 ft 11 kts 180°
2026-04-16 23:35 32.11929 -81.19807 51 ft 13 kts 180°
2026-04-16 23:36 32.11859 -81.19808 51 ft 4 kts 180°
2026-04-16 23:36 32.11852 -81.19808 51 ft 3 kts 180°
2026-04-16 23:36 32.11808 -81.19807 49 ft 9 kts 179°
2026-04-16 23:36 32.11716 -81.19818 51 ft 11 kts 204°
2026-04-16 23:37 32.11670 -81.19899 50 ft 14 kts 262°
2026-04-16 23:37 32.11668 -81.19971 47 ft 15 kts 274°
2026-04-16 23:37 32.11668 -81.20080 50 ft 12 kts 269°
2026-04-16 23:37 32.11681 -81.20174 51 ft 12 kts 310°
2026-04-16 23:38 32.11767 -81.20195 51 ft 14 kts
2026-04-16 23:38 32.11876 -81.20194 51 ft 17 kts
2026-04-16 23:38 32.12004 -81.20195 51 ft 20 kts 359°
2026-04-16 23:38 32.12147 -81.20196 51 ft 16 kts 359°
2026-04-16 23:39 32.12262 -81.20197 51 ft 18 kts 360°
2026-04-16 23:39 32.12394 -81.20198 51 ft 16 kts 360°
2026-04-16 23:39 32.12515 -81.20214 49 ft 19 kts 336°
2026-04-16 23:39 32.12639 -81.20291 50 ft 22 kts 330°
2026-04-16 23:40 32.12763 -81.20331 44 ft 20 kts 359°
2026-04-16 23:40 32.12895 -81.20332 41 ft 18 kts
2026-04-16 23:40 32.13005 -81.20330 49 ft 15 kts
2026-04-16 23:40 32.13113 -81.20329 51 ft 16 kts
2026-04-16 23:41 32.13236 -81.20328 51 ft 19 kts
2026-04-16 23:41 32.13302 -81.20330 51 ft 10 kts 359°
2026-04-16 23:41 32.13380 -81.20331 51 ft 13 kts 359°
2026-04-16 23:41 32.13443 -81.20389 51 ft 14 kts 279°
2026-04-16 23:42 32.13446 -81.20508 51 ft 16 kts 271°
2026-04-16 23:42 32.13449 -81.20649 51 ft 18 kts 271°
2026-04-16 23:42 32.13449 -81.20737 51 ft 5 kts 270°
2026-04-16 23:42 32.13449 -81.20772 51 ft 3 kts 271°
2026-04-16 23:43 32.13452 -81.20800 51 ft 4 kts 281°
2026-04-16 23:43 32.13475 -81.20830 51 ft 6 kts 347°
2026-04-16 23:43 32.13511 -81.20832 51 ft 0 kts 359°
2026-04-16 23:43 32.13519 -81.20832 51 ft 1 kts 359°
2026-04-16 23:44 32.13522 -81.20832 51 ft 0 kts 359°